Meath Environmental Platform

Observations for Trim Market St

Time AQI Temp °C Hum % Pres Pa CO μg/m³ H₂S μg/m³ NO μg/m³ NO₂ μg/m³ O₃ μg/m³ SO₂ μg/m³ PM1 μg/m³ PM2.5 μg/m³ PM10 μg/m³
Thursday 27 August 2026
01:12 3 16.3 83 2,147,483,647 0.35 0 2.14 7.23 44.38 0 14.96 18.38 27.95
01:11 3 16.3 83 2,147,483,647 0.42 0 2.14 7.35 47.87 0 15.68 17.9 26.83
01:10 3 16.4 83 2,147,483,647 0.3 0 2.17 5.62 47.07 0 16.39 20.72 33.47
01:08 3 16.4 83 2,147,483,647 0.31 0 2.25 7.56 47.28 0 16.39 19.31 29.61
01:07 3 16.4 83 2,147,483,647 0.35 0 2.18 6.5 43.09 0 14.96 17.91 27.95
01:06 3 16.4 83 2,147,483,647 0.28 0 2.16 6.21 44.5 0 14.96 18.38 28.51
01:01 3 16.4 82 2,147,483,647 0.3 0 2.13 6.88 47.42 0 16.39 19.79 30.74
00:53 3 16.4 82 2,147,483,647 0.3 0 2.14 8 44.74 0 15.68 16.98 25.77
00:52 3 16.4 82 2,147,483,647 0.32 0 2.16 13.61 32.89 0 14.96 17.93 27.44
00:51 3 16.4 82 2,147,483,647 0.31 0 2.14 8.6 43.15 0 16.39 19.8 30.21
00:50 3 16.5 82 2,147,483,647 0.29 0 2.13 6.18 41.81 0 15.68 19.33 30.21
00:49 3 16.5 82 2,147,483,647 0.29 0 2.15 5.93 43.73 0 16.39 18.4 29.1
00:48 3 16.5 82 2,147,483,647 0.29 0 2.16 7.91 53.9 0 13.54 17 25.8
00:47 3 16.5 82 2,147,483,647 0.28 0 2.14 7.7 49 0 17.1 19.81 30.79
00:46 3 16.5 82 2,147,483,647 0.28 0 2.16 6.24 43.47 0 16.39 19.34 30.23
00:45 3 16.5 82 2,147,483,647 0.28 0 2.15 7.33 41.75 0 16.39 18.4 30.23
00:40 3 16.5 82 2,147,483,647 0.28 0 2.11 5.92 52.21 0 16.39 20.76 31.37
00:37 3 16.5 82 2,147,483,647 0.28 0 2.11 6.93 48.11 0 15.68 20.29 31.37
00:33 3 16.6 82 2,147,483,647 0.28 0 2.09 7.02 48.93 0 15.68 18.89 28.62
00:30 3 16.6 82 2,147,483,647 0.28 0 2.09 6.82 49.21 0 15.68 18.43 28.64